Location: Hastringsfeld
(50.9620°N, 10.4787°E)
Time: 18:35:17
(UTC+00:00)

Cosmos 2082 Rocket - Pass Details

Date: 26 September 2023
Orbit: 834 x 852 km, 71.0° (Epoch: 07 December)

Event Time Altitude Azimuth Distance (km) Brightness Sun altitude
Exits shadow 04:25:25 - 288° (WNW) 2,810 4.4 -7.8°
Reaches altitude 10° 04:26:51 10° 299° (WNW) 2,489 4.2 -7.6°
Maximum altitude 04:30:04 15° 334° (NNW) 2,149 4.1 -7.1°
Drops below altitude 10° 04:33:17 10° 8° (N) 2,490 4.9 -6.6°
Sets 04:36:55 0° 32° (NNE) 3,426 5.9 -6.0°
